SCP
0 0 0 0 0 0 0 0 0 0 0 0 0 0 0 0 0 0 0 0 0 0 0 0 0 0 0 0 0 0 0 0
0 0 0 0 0 0 0 0 0 0 0 0 0 0 0 0 0 0 0 0 0 0 0 0 0 0 0 0 0 0 0 0
0 0 0 0 0 0 0 0 0 0 0 0 0 0 0 0 0 0 0 0 0 0 0 0 0 0 0 0 0 0 0 0
-0 -0 0 0 0 0 0 0 0 0 0 0 0 0 0 0 0 0 0 0 0 0 0 0 0 0 0 0 0 0 0 0
-0 0 0 0 0 0 0 0 0 0 0 0 0 0 0 0 0 0 0 0 0 0 0 0 0 0 0 0 0 0 0 0
0 0 0 0 0 0 0 0 0 0 0 0 0 0 0 0 0 0 0 0 0 0 0 0 0 0 0 0 -0 0 0 0
0 0 0 0 0 0 0 0 0 0 0 0 0 0 0 0 0 0 0 0 0 0 0 0 0 0 0 0 0 0 0 0
0 0 0 0 0 0 0 0 0 0 0 0 0 0 0 0 0 0 0 0 0 0 0 0 0 0 0 0 0 0 0 0
0 0 0 0 0 0 0 0 0 0 0 0 0 0 0 0 0 0 0 0 0 0 0 0 0 0 -0 0 0 0 0 0
0 0 0 0 0 0 0 0 0 0 0 0 0 0 0 0 0 0 0 0 0 0 -0 -0 0 0 0 0 0 0 0 0
0 0 0 0 0 0 0 0 0 0 0 0 0 0 0 0 0 0 0 0 0 0 0 0 0 0 0 0 0 -0 -0 0
0 0 0 0 0 0 0 0 0 0 0 0 0 0 0 0 0 0 0 0 -0 0 0 0 0 0 0 0 0 0 0 0
0 0 0 0 0 0 0 0 0 0 0 0 0 0 0 0 0 0 0 0 -0 0 0 0 0 0 0 0 0 0 0 -0
0 0 0 0 0 0 0 0 0 0 0 0 0 0 0 0 0 0 0 0 -0 -0 0 0 0 0 0 0 0 0 0 0
0 0 0 0 0 0 0 0 0 0 0 0 0 0 0 0 0 0 0 0 0 0 0 0 0 0 -0 -0 -0 0 0 0
0 0 0 0 0 0 0 0 0 0 0 0 0 0 0 0 0 0 0 -0 0 0 0 0 -0 0 -0 -0 -0 0 0 0
0 0 0 0 0 0 0 0 0 -0 -0 0 0 -0 -0 0 -0 0 0 0 -0 0 0 0 0 -0 -0 -0 -0 0 0 0
0 0 0 0 0 0 -0 -0 -0 -0 -0 -0 -0 -0 -0 -0 -0 0 0 0 0 0 0 0 0 0 0 0 0 0 0 0
0 0 0 -0 -0 -0 -0 -0 -0 -0 -0 -0 -0 -0 -0 0 0 0 0 0 0 0 0 0 0 0 0 0 0 0 0 0
0 0 0 -0 -0 -0 -0 -0 0 0 0 0 0 0 0 0 0 0 0 0 0 0 0 0 0 0 0 0 0 0 0 0
Wind_Speed_500mb
65 65 59 50 40 31 19 12 6 6 7 8 9 17 22 22 24 26 29 30 31 30 35 41 46 44 49 42 45 47 48 53
75 76 63 48 36 23 12 4 9 14 15 16 15 13 15 18 21 19 19 26 31 34 42 49 49 42 39 34 33 38 43 46
73 68 56 42 28 17 5 7 15 19 19 14 16 13 13 18 19 21 26 28 35 45 50 46 30 28 28 32 33 40 48 55
62 56 45 33 20 9 6 12 17 20 17 19 21 19 21 25 28 31 35 40 46 45 42 25 22 27 29 30 35 48 57 65
54 43 31 21 9 3 12 17 20 23 21 20 27 30 30 33 37 41 41 39 36 38 15 22 28 32 36 39 49 52 57 57
43 33 21 8 4 9 12 16 18 19 22 25 30 35 38 39 38 37 31 27 26 17 21 25 29 33 39 54 51 44 47 53
30 19 10 5 5 7 9 11 14 17 22 24 25 25 25 23 20 19 19 22 20 22 27 33 36 36 45 53 38 47 59 62
22 16 7 8 12 12 11 12 14 18 23 24 20 19 15 10 13 17 19 20 23 25 33 34 38 42 50 36 45 56 64 70
21 21 21 21 20 19 15 16 18 19 26 25 17 14 10 10 11 14 19 22 26 29 33 36 40 44 49 31 46 58 59 61
22 21 20 20 22 23 20 20 21 20 27 25 15 9 5 6 13 16 19 26 32 34 40 39 40 43 44 36 51 42 48 50
21 16 17 18 20 22 20 24 28 27 27 32 22 11 7 10 16 19 21 23 26 32 38 44 46 46 49 36 47 48 45 48
20 14 9 11 15 21 20 19 26 33 32 39 37 25 13 10 13 20 20 24 30 33 38 46 49 52 54 45 44 39 44 47
10 8 9 10 13 17 17 13 16 22 31 29 37 46 39 26 25 32 29 33 33 30 35 39 47 48 46 32 37 49 41 48
18 17 10 7 11 15 13 16 19 27 29 22 25 31 33 39 40 38 39 36 43 36 27 26 28 35 33 25 20 28 39 45
17 15 10 7 17 15 17 16 17 24 26 22 20 23 29 23 32 34 41 41 40 44 36 29 31 37 35 30 28 27 37 53
11 9 12 11 20 24 18 15 19 18 20 17 17 22 26 24 29 30 30 43 46 45 43 40 38 35 38 43 39 42 50 62
14 15 18 18 22 24 17 12 14 13 15 16 14 15 20 21 22 28 31 34 40 46 45 46 42 44 41 44 49 54 60 62
19 26 20 22 24 22 15 9 8 10 12 13 11 9 10 18 21 22 25 33 36 42 52 59 54 49 55 58 55 56 58 60
22 22 23 25 25 20 16 17 16 17 15 13 11 10 13 18 20 21 25 29 36 37 41 48 55 56 60 61 61 58 58 58
21 20 22 22 20 17 14 23 26 22 19 17 15 17 16 18 21 19 25 30 32 35 39 45 52 53 58 59 58 57 56 55
Wind_Direction_500mb
130 128 142 148 152 152 153 162 197 244 274 273 296 312 318 321 322 329 333 331 320 309 315 316 316 314 315 315 313 311 310 303
137 139 144 147 148 151 166 212 286 288 286 283 282 291 308 311 318 321 305 303 305 305 310 312 312 314 320 323 328 323 317 315
143 142 145 152 159 167 186 289 289 283 284 275 252 259 267 264 267 279 287 291 297 303 307 312 322 325 333 333 331 325 323 318
143 148 150 152 158 176 284 293 289 286 272 242 239 247 256 264 271 278 287 296 303 305 314 326 333 332 334 328 326 327 320 314
145 145 145 150 160 291 295 295 291 288 287 272 256 258 264 270 277 285 296 303 313 325 345 331 324 330 337 335 328 319 318 325
140 140 142 139 337 315 301 296 298 299 294 285 278 274 272 275 282 288 293 312 329 340 327 324 321 331 335 336 325 327 328 332
134 126 105 49 326 310 323 325 327 321 315 308 299 289 288 287 287 302 319 324 327 315 324 329 326 326 337 332 329 333 336 339
121 118 118 101 66 39 10 354 350 344 340 329 320 309 310 317 314 332 326 319 312 304 305 319 324 331 336 335 338 338 339 337
109 107 99 72 47 29 15 3 350 357 353 344 334 322 312 315 322 308 315 303 296 301 307 313 325 334 335 337 343 345 340 338
105 97 79 54 35 20 16 13 11 16 8 0 347 330 329 303 297 307 301 296 301 308 307 316 328 336 339 348 345 348 337 339
112 83 64 41 23 15 20 35 40 31 31 25 17 2 323 317 325 318 320 311 324 334 334 338 339 344 352 353 359 344 343 345
121 107 70 58 20 10 29 52 54 45 40 36 30 27 16 358 349 352 348 340 343 344 335 345 351 352 355 359 360 354 5 2
144 124 103 71 8 9 19 56 45 46 44 45 35 35 41 51 42 35 32 16 360 348 349 351 349 354 2 2 16 18 15 23
117 114 106 54 17 32 81 62 46 42 37 47 35 44 39 46 52 50 44 39 36 29 14 1 2 8 1 8 14 5 17 30
108 107 100 53 42 45 91 68 52 50 39 38 43 57 35 39 38 35 34 35 34 33 35 27 26 22 19 22 28 27 27 30
104 105 109 71 57 89 66 68 64 59 50 37 57 51 57 56 47 42 42 29 23 24 29 31 27 21 22 35 36 31 31 34
91 98 101 68 81 86 75 72 62 41 42 32 34 58 62 53 51 57 50 30 27 23 21 28 30 28 28 31 37 40 36 33
86 90 90 76 90 76 72 45 26 10 12 10 3 41 43 39 47 46 32 29 29 29 25 21 23 25 27 29 31 33 33 29
73 90 83 99 80 71 66 37 24 17 14 17 22 24 26 29 38 36 28 27 30 27 28 23 26 32 30 30 31 30 28 26
73 99 100 107 89 75 48 32 26 27 28 30 32 35 33 29 31 32 26 27 28 24 22 23 26 30 29 27 29 28 28 27
Wind_Speed_850mb
65 65 59 50 40 31 19 12 6 6 7 8 9 17 22 22 24 26 29 30 31 30 35 41 46 44 49 42 45 47 48 53
75 76 63 48 36 23 12 4 9 14 15 16 15 13 15 18 21 19 19 26 31 34 42 49 49 42 39 34 33 38 43 46
73 68 56 42 28 17 5 7 15 19 19 14 16 13 13 18 19 21 26 28 35 45 50 46 30 28 28 32 33 40 48 55
62 56 45 33 20 9 6 12 17 20 17 19 21 19 21 25 28 31 35 40 46 45 42 25 22 27 29 30 35 48 57 65
54 43 31 21 9 3 12 17 20 23 21 20 27 30 30 33 37 41 41 39 36 38 15 22 28 32 36 39 49 52 57 57
43 33 21 8 4 9 12 16 18 19 22 25 30 35 38 39 38 37 31 27 26 17 21 25 29 33 39 54 51 44 47 53
30 19 10 5 5 7 9 11 14 17 22 24 25 25 25 23 20 19 19 22 20 22 27 33 36 36 45 53 38 47 59 62
22 16 7 8 12 12 11 12 14 18 23 24 20 19 15 10 13 17 19 20 23 25 33 34 38 42 50 36 45 56 64 70
21 21 21 21 20 19 15 16 18 19 26 25 17 14 10 10 11 14 19 22 26 29 33 36 40 44 49 31 46 58 59 61
22 21 20 20 22 23 20 20 21 20 27 25 15 9 5 6 13 16 19 26 32 34 40 39 40 43 44 36 51 42 48 50
21 16 17 18 20 22 20 24 28 27 27 32 22 11 7 10 16 19 21 23 26 32 38 44 46 46 49 36 47 48 45 48
20 14 9 11 15 21 20 19 26 33 32 39 37 25 13 10 13 20 20 24 30 33 38 46 49 52 54 45 44 39 44 47
10 8 9 10 13 17 17 13 16 22 31 29 37 46 39 26 25 32 29 33 33 30 35 39 47 48 46 32 37 49 41 48
18 17 10 7 11 15 13 16 19 27 29 22 25 31 33 39 40 38 39 36 43 36 27 26 28 35 33 25 20 28 39 45
17 15 10 7 17 15 17 16 17 24 26 22 20 23 29 23 32 34 41 41 40 44 36 29 31 37 35 30 28 27 37 53
11 9 12 11 20 24 18 15 19 18 20 17 17 22 26 24 29 30 30 43 46 45 43 40 38 35 38 43 39 42 50 62
14 15 18 18 22 24 17 12 14 13 15 16 14 15 20 21 22 28 31 34 40 46 45 46 42 44 41 44 49 54 60 62
19 26 20 22 24 22 15 9 8 10 12 13 11 9 10 18 21 22 25 33 36 42 52 59 54 49 55 58 55 56 58 60
22 22 23 25 25 20 16 17 16 17 15 13 11 10 13 18 20 21 25 29 36 37 41 48 55 56 60 61 61 58 58 58
21 20 22 22 20 17 14 23 26 22 19 17 15 17 16 18 21 19 25 30 32 35 39 45 52 53 58 59 58 57 56 55
Wind_Direction_850mb
130 128 142 148 152 152 153 162 197 244 274 273 296 312 318 321 322 329 333 331 320 309 315 316 316 314 315 315 313 311 310 303
137 139 144 147 148 151 166 212 286 288 286 283 282 291 308 311 318 321 305 303 305 305 310 312 312 314 320 323 328 323 317 315
143 142 145 152 159 167 186 289 289 283 284 275 252 259 267 264 267 279 287 291 297 303 307 312 322 325 333 333 331 325 323 318
143 148 150 152 158 176 284 293 289 286 272 242 239 247 256 264 271 278 287 296 303 305 314 326 333 332 334 328 326 327 320 314
145 145 145 150 160 291 295 295 291 288 287 272 256 258 264 270 277 285 296 303 313 325 345 331 324 330 337 335 328 319 318 325
140 140 142 139 337 315 301 296 298 299 294 285 278 274 272 275 282 288 293 312 329 340 327 324 321 331 335 336 325 327 328 332
134 126 105 49 326 310 323 325 327 321 315 308 299 289 288 287 287 302 319 324 327 315 324 329 326 326 337 332 329 333 336 339
121 118 118 101 66 39 10 354 350 344 340 329 320 309 310 317 314 332 326 319 312 304 305 319 324 331 336 335 338 338 339 337
109 107 99 72 47 29 15 3 350 357 353 344 334 322 312 315 322 308 315 303 296 301 307 313 325 334 335 337 343 345 340 338
105 97 79 54 35 20 16 13 11 16 8 0 347 330 329 303 297 307 301 296 301 308 307 316 328 336 339 348 345 348 337 339
112 83 64 41 23 15 20 35 40 31 31 25 17 2 323 317 325 318 320 311 324 334 334 338 339 344 352 353 359 344 343 345
121 107 70 58 20 10 29 52 54 45 40 36 30 27 16 358 349 352 348 340 343 344 335 345 351 352 355 359 360 354 5 2
144 124 103 71 8 9 19 56 45 46 44 45 35 35 41 51 42 35 32 16 360 348 349 351 349 354 2 2 16 18 15 23
117 114 106 54 17 32 81 62 46 42 37 47 35 44 39 46 52 50 44 39 36 29 14 1 2 8 1 8 14 5 17 30
108 107 100 53 42 45 91 68 52 50 39 38 43 57 35 39 38 35 34 35 34 33 35 27 26 22 19 22 28 27 27 30
104 105 109 71 57 89 66 68 64 59 50 37 57 51 57 56 47 42 42 29 23 24 29 31 27 21 22 35 36 31 31 34
91 98 101 68 81 86 75 72 62 41 42 32 34 58 62 53 51 57 50 30 27 23 21 28 30 28 28 31 37 40 36 33
86 90 90 76 90 76 72 45 26 10 12 10 3 41 43 39 47 46 32 29 29 29 25 21 23 25 27 29 31 33 33 29
73 90 83 99 80 71 66 37 24 17 14 17 22 24 26 29 38 36 28 27 30 27 28 23 26 32 30 30 31 30 28 26
73 99 100 107 89 75 48 32 26 27 28 30 32 35 33 29 31 32 26 27 28 24 22 23 26 30 29 27 29 28 28 27